Lid_Strength_Index
10 10 11 12 11 10 10 10 9 9 8 8 8 7 7 6 5 5 4 4 4 3 2 2 3 2 2 2 1 1 2 2 5 8 9 9 10 9 9 7 7 6 7
11 11 12 11 10 11 10 9 9 8 7 7 7 7 6 6 6 6 5 5 4 4 2 2 2 1 2 1 2 2 2 2 3 5 12 12 13 14 11 12 12 11 10
11 12 12 11 11 11 11 9 9 8 8 8 7 7 7 7 7 6 6 6 5 4 3 2 2 2 2 2 2 2 2 2 2 4 11 13 13 13 14 15 15 15 14
13 13 13 12 12 11 11 10 9 9 8 8 7 7 7 8 7 7 6 6 6 5 5 4 4 3 3 3 3 2 2 3 3 5 10 13 14 14 13 14 15 15 15
14 14 13 13 12 12 12 11 10 10 9 8 8 8 7 8 7 7 7 8 7 8 7 7 7 8 8 6 4 3 3 3 4 7 11 12 13 13 13 14 15 16 15
15 15 14 13 13 12 12 11 11 10 10 9 9 9 9 8 7 8 8 9 9 10 9 9 9 9 7 7 6 6 6 6 4 7 9 10 11 12 13 13 14 15 16
15 15 14 14 14 13 12 12 12 11 10 10 10 9 9 9 8 8 8 9 10 10 10 10 10 10 10 10 8 8 9 7 8 5 8 9 11 12 12 14 14 15 16
15 14 14 15 15 14 13 12 12 11 11 11 11 10 10 9 8 8 9 10 10 10 10 10 10 10 10 10 11 12 12 11 10 10 9 8 8 10 10 11 14 16 16
15 14 14 13 14 13 13 13 12 12 12 11 11 11 10 10 9 9 10 10 11 11 10 10 11 11 10 10 12 13 14 14 12 11 10 9 8 9 12 13 14 15 17
13 14 14 12 13 14 13 13 12 12 12 11 12 12 12 11 10 10 10 11 12 12 11 11 10 11 10 11 12 13 15 15 15 15 16 15 16 16 16 13 13 14 17
12 12 13 13 12 13 13 13 13 13 12 12 12 12 13 12 11 10 10 12 12 13 13 13 11 10 10 10 11 13 14 14 14 16 17 17 18 18 19 18 17 14 17
13 13 13 13 12 12 14 13 13 13 14 14 14 14 14 14 13 12 12 11 12 14 14 14 14 12 11 12 12 11 12 13 15 16 17 18 18 18 19 19 18 18 18
14 15 15 14 14 13 13 13 14 14 14 14 14 15 15 14 14 14 13 13 14 15 14 14 13 14 15 15 14 15 15 15 17 18 18 19 18 17 16 16 17 18 19
16 15 15 15 14 14 13 13 13 14 14 14 14 14 14 14 14 14 14 15 15 16 16 16 15 16 16 17 18 17 18 18 18 18 18 18 17 18 18 17 17 18 19
16 15 15 14 14 14 14 13 14 14 13 14 13 13 13 14 14 13 14 15 15 15 16 16 17 17 18 19 19 20 20 19 20 20 20 20 21 21 21 19 19 19 21
16 16 15 14 14 14 14 14 12 13 12 12 12 12 12 13 13 13 13 14 14 14 17 18 19 19 20 20 20 21 21 21 20 20 21 22 22 22 22 22 21 21 23
16 15 15 15 14 14 14 15 16 16 14 13 13 13 13 14 14 14 15 14 15 16 18 19 20 20 21 21 22 22 23 22 21 21 21 21 21 22 22 22 22 22 24
15 16 15 14 14 14 14 14 15 16 17 17 17 16 15 15 15 15 15 16 18 19 20 20 21 21 21 22 22 22 22 23 23 23 23 22 22 22 23 23 23 23 24
15 15 15 14 14 14 14 15 15 16 16 17 18 18 20 17 17 16 15 17 19 20 20 21 21 22 22 22 23 23 24 24 23 23 23 23 23 24 25 25 25 25 25
15 15 15 15 15 15 15 16 16 17 17 17 17 17 18 21 17 19 19 19 19 20 20 22 22 23 23 23 23 23 23 24 24 24 24 23 23 24 24 25 25 25 26
15 15 16 15 16 15 15 16 16 17 17 17 17 18 19 18 18 19 20 20 20 21 21 22 23 24 24 24 23 24 24 25 26 26 25 25 26 25 25 25 26 27 27
15 15 15 16 16 16 16 15 16 16 17 18 18 19 17 19 19 20 20 21 21 22 22 23 23 24 25 24 24 24 25 26 26 26 27 28 27 27 27 27 27 28 30
15 15 15 16 16 17 17 16 16 17 17 17 18 19 19 20 20 21 21 22 24 25 25 24 25 27 27 26 25 25 25 26 27 27 27 28 28 28 28 29 31 31 32
15 15 15 15 16 17 17 17 17 19 17 18 18 19 19 20 21 21 22 23 24 25 27 27 27 28 29 28 27 27 28 27 28 28 28 28 29 29 29 31 32 32 32
15 15 15 15 16 17 17 17 18 18 18 18 19 19 19 20 21 22 23 25 27 26 28 29 29 29 30 30 29 29 30 28 29 29 30 29 30 31 32 32 32 33 34
15 16 15 16 17 17 17 17 18 18 19 19 19 19 20 20 21 22 24 26 27 28 28 29 30 30 29 29 30 29 31 29 32 30 30 30 30 32 33 33 33 32 33